{"data":{"norad_id":60192,"epoch":"2026-05-24T23:24:26.296704Z","epoch_age_seconds":67284,"freshness":"FRESH","line1":"1 60192U 24124K   26144.97530436  .00000347  00000+0  77202-5 0  9991","line2":"2 60192  53.1589 145.3367 0000679  69.2179 290.8911 15.69703927108510","mean_motion":15.69703927,"eccentricity":6.79e-5,"inclination_deg":53.1589,"raan_deg":145.3367,"arg_perigee_deg":69.2179,"mean_anomaly_deg":290.8911,"bstar":7.7202e-6,"rev_number":10851,"period_min":91.737045135136,"perigee_km":359.28662694853,"apogee_km":360.20163120585,"semimajor_km":6737.8811290772,"source":"CELESTRAK","updated_at":"2026-05-25T13:38:19.195237Z"}}